Flag Weather past 2 weeks in Miami, Florida, U.S.A.

Now
60 °F

Passing clouds.


Feels Like: 60 °F
Forecast: 63 / 74 °F
Wind: 9 mph from North

Location: Miami International Airport

Current Time: Nov 28, 2014 at 11:10:07 PM

Latest Report: Nov 28, 2014 at 9:53 PM


Visibility: 10 mi

Pressure: 30.20 "Hg

Humidity: 69%

Dew point: 50 °F

Location of MiamiLocation

Historic Weather in Miami — Graph

°F

Miami temperature yesterday

Maximum temperature yesterday: 73 °F (at 2:53 PM)
Minimum temperature yesterday: 56 °F (at 4:53 AM)
Average temperature yesterday: 64 °F

Past Weeks' High & Low Weather Summary

 TemperatureHumidityPressure
High86 °F (Nov 17, 2:53 PM)97% (Nov 21, 4:53 AM)30.27 "Hg (Nov 21, 4:53 AM)
Low53 °F (Nov 28, 5:53 AM)23% (Nov 27, 11:53 AM)29.92 "Hg (Nov 23, 4:53 PM)
Average73 °F76%30.09 "Hg
* Reported Nov 13 8:53 PM — Nov 28 8:53 PM, Miami, Weather by CustomWeather, © 2014

Note: Actual official high and low records may vary slightly from our data, if they occured in-between our weather recording intervals... More about our weather records

Advertising

Miami weather history for previous 24 hours

 ConditionsComfort  
Time TempWeatherWind HumidityBarometerVisibility
8:53 PM
Nov 28
62 °FPassing clouds.12 mph67%30.20 "Hg10 mi
7:53 PM63 °FPassing clouds.7 mph65%30.19 "Hg10 mi
6:53 PM65 °FPassing clouds.10 mph61%30.19 "Hg10 mi
5:53 PM66 °FPassing clouds.6 mph59%30.18 "Hg10 mi
4:53 PM69 °FPassing clouds.8 mph51%30.16 "Hg10 mi
3:53 PM70 °FBroken clouds.7 mph49%30.16 "Hg10 mi
2:53 PM70 °FBroken clouds.10 mph49%30.15 "Hg10 mi
1:53 PM71 °FScattered clouds.6 mph47%30.16 "Hg10 mi
12:53 PM70 °FPassing clouds.13 mph49%30.19 "Hg10 mi
11:53 AM67 °FPassing clouds.10 mph51%30.22 "Hg10 mi
10:53 AM65 °FPassing clouds.10 mph52%30.24 "Hg10 mi
9:53 AM62 °FPassing clouds.10 mph56%30.25 "Hg10 mi
8:53 AM58 °FPassing clouds.12 mph60%30.24 "Hg10 mi
7:53 AM54 °FPassing clouds.10 mph67%30.23 "Hg10 mi
6:53 AM53 °FPassing clouds.10 mph69%30.21 "Hg10 mi
5:53 AM53 °FPassing clouds.12 mph66%30.19 "Hg10 mi
4:53 AM54 °FClear.9 mph64%30.18 "Hg10 mi
3:53 AM56 °FClear.10 mph58%30.17 "Hg10 mi
2:53 AM57 °FClear.10 mph58%30.17 "Hg10 mi
1:53 AM58 °FClear.10 mph51%30.17 "Hg10 mi
12:53 AM59 °FClear.12 mph58%30.19 "Hg10 mi
11:53 PM
Nov 27
61 °FClear.8 mph62%30.20 "Hg10 mi
Weather by CustomWeather, © 2014

See weather overviewHow to use our weather pages